When you browse on this site, cookies collect data to enhance your experience and personalize the content and advertising you see.
Visit our Privacy Policy to learn more. By continuing to use the site, you agree to this use of cookies and data.
  • In Hungary
  • List of Countries
  • For 7 days
  • Water Temperature
  • Satellite Maps
  • Weather Map
  • News
  • Weather Widgets
  • user-avatar
    Login

    Hourly Weather Kleszczow

    Today, 21 May, Tuesday

    Time Temperature Precipitation Wind Pressure Humidity
    00:00 +12°C° 0 mm 1 mps 722 mmHg 82%
    01:00 +12°C° 0 mm 1 mps 722 mmHg 83%
    02:00 +12°C° 0 mm 1 mps 722 mmHg 83%
    03:00 +12°C° 0 mm 1 mps 722 mmHg 84%
    04:00 +11°C° 0 mm 1 mps 722 mmHg 84%
    05:00 +13°C° 0 mm 1 mps 722 mmHg 82%
    06:00 +14°C° 0 mm 1 mps 722 mmHg 80%
    07:00 +15°C° 0 mm 1 mps 722 mmHg 79%
    08:00 +15°C° 0.3 mm 1 mps 721 mmHg 79%
    09:00 +15°C° 0.3 mm 2 mps 721 mmHg 80%
    10:00 +16°C° 0.3 mm 2 mps 721 mmHg 80%
    11:00 +16°C° 0.7 mm 2 mps 721 mmHg 80%
    12:00 +16°C° 0.7 mm 2 mps 721 mmHg 80%
    13:00 +16°C° 0.7 mm 2 mps 721 mmHg 80%
    14:00 +16°C° 0.6 mm 3 mps 721 mmHg 82%
    15:00 +16°C° 0.6 mm 3 mps 720 mmHg 84%
    16:00 +16°C° 0.6 mm 3 mps 720 mmHg 86%
    17:00 +14°C° 0.4 mm 4 mps 720 mmHg 86%
    18:00 +14°C° 0.4 mm 5 mps 720 mmHg 86%
    19:00 +14°C° 0.4 mm 5 mps 720 mmHg 86%
    20:00 +14°C° 0.6 mm 5 mps 720 mmHg 87%
    21:00 +13°C° 0.6 mm 6 mps 720 mmHg 89%
    22:00 +13°C° 0.6 mm 6 mps 720 mmHg 90%
    23:00 +13°C° 0.6 mm 6 mps 720 mmHg 91%

    Tomorrow, 22 May, Wednesday

    Time Temperature Precipitation Wind Pressure Humidity
    00:00 +13°C° 0.6 mm 6 mps 720 mmHg 91%
    01:00 +13°C° 0.6 mm 6 mps 720 mmHg 91%
    02:00 +13°C° 0.5 mm 5 mps 720 mmHg 92%
    03:00 +13°C° 0.5 mm 5 mps 720 mmHg 92%
    04:00 +13°C° 0.5 mm 5 mps 720 mmHg 93%
    05:00 +13°C° 0.3 mm 5 mps 720 mmHg 93%
    06:00 +13°C° 0.3 mm 4 mps 720 mmHg 92%
    07:00 +13°C° 0.3 mm 4 mps 720 mmHg 92%
    08:00 +14°C° 0.6 mm 4 mps 721 mmHg 89%
    09:00 +14°C° 0.6 mm 5 mps 721 mmHg 87%
    10:00 +15°C° 0.6 mm 5 mps 721 mmHg 84%
    11:00 +14°C° 0.7 mm 4 mps 721 mmHg 86%
    12:00 +14°C° 0.7 mm 4 mps 721 mmHg 88%
    13:00 +13°C° 0.7 mm 3 mps 721 mmHg 90%
    14:00 +14°C° 0.4 mm 4 mps 722 mmHg 88%
    15:00 +14°C° 0.4 mm 4 mps 722 mmHg 86%
    16:00 +15°C° 0.4 mm 4 mps 722 mmHg 85%
    17:00 +14°C° 1.3 mm 5 mps 722 mmHg 87%
    18:00 +14°C° 1.3 mm 5 mps 722 mmHg 89%
    19:00 +13°C° 1.3 mm 6 mps 722 mmHg 92%
    20:00 +13°C° 1.5 mm 6 mps 722 mmHg 92%
    21:00 +13°C° 1.5 mm 6 mps 723 mmHg 93%
    22:00 +12°C° 1.5 mm 7 mps 723 mmHg 93%
    23:00 +13°C° 2 mm 6 mps 723 mmHg 94%

    Day after tomorrow, 23 May, Thursday

    Time Temperature Precipitation Wind Pressure Humidity
    00:00 +13°C° 2 mm 6 mps 724 mmHg 94%
    01:00 +13°C° 2 mm 6 mps 724 mmHg 94%
    02:00 +13°C° 1.3 mm 6 mps 724 mmHg 95%
    03:00 +13°C° 1.3 mm 6 mps 724 mmHg 95%
    04:00 +13°C° 1.3 mm 6 mps 724 mmHg 95%
    05:00 +13°C° 1.1 mm 6 mps 725 mmHg 94%
    06:00 +13°C° 1.1 mm 6 mps 725 mmHg 94%
    07:00 +13°C° 1.1 mm 6 mps 725 mmHg 94%
    08:00 +13°C° 1.5 mm 6 mps 726 mmHg 94%
    09:00 +11°C° 1.5 mm 6 mps 726 mmHg 94%
    10:00 +11°C° 1.5 mm 6 mps 727 mmHg 94%
    11:00 +11°C° 1.2 mm 6 mps 727 mmHg 93%
    12:00 +11°C° 1.2 mm 6 mps 727 mmHg 93%
    13:00 +10°C° 1.2 mm 7 mps 727 mmHg 93%
    14:00 +10°C° 0.2 mm 6 mps 728 mmHg 93%
    15:00 +10°C° 0.2 mm 6 mps 728 mmHg 93%
    16:00 +10°C° 0.2 mm 5 mps 728 mmHg 93%
    17:00 +10°C° 0.1 mm 5 mps 728 mmHg 92%
    18:00 +10°C° 0.1 mm 5 mps 728 mmHg 92%
    19:00 +10°C° 0.1 mm 5 mps 728 mmHg 92%
    20:00 +11°C° 0.1 mm 4 mps 728 mmHg 91%
    21:00 +11°C° 0.1 mm 4 mps 729 mmHg 91%
    22:00 +10°C° 0.1 mm 4 mps 729 mmHg 90%
    23:00 +10°C° 0 mm 3 mps 729 mmHg 90%

    24 May, Friday

    Time Temperature Precipitation Wind Pressure Humidity
    00:00 +10°C° 0 mm 3 mps 729 mmHg 90%
    01:00 +10°C° 0 mm 3 mps 729 mmHg 90%
    02:00 +9°C° 0 mm 3 mps 729 mmHg 91%
    03:00 +8°C° 0 mm 3 mps 728 mmHg 91%
    04:00 +8°C° 0 mm 3 mps 728 mmHg 91%
    05:00 +9°C° 0 mm 3 mps 729 mmHg 87%
    06:00 +9°C° 0 mm 3 mps 729 mmHg 83%
    07:00 +10°C° 0 mm 3 mps 729 mmHg 79%
    08:00 +11°C° 0 mm 3 mps 729 mmHg 72%
    09:00 +12°C° 0 mm 3 mps 729 mmHg 66%
    10:00 +14°C° 0 mm 3 mps 729 mmHg 59%
    11:00 +14°C° 0 mm 3 mps 729 mmHg 58%
    12:00 +16°C° 0 mm 3 mps 729 mmHg 57%
    13:00 +17°C° 0 mm 2 mps 728 mmHg 56%
    14:00 +17°C° 0 mm 2 mps 728 mmHg 57%
    15:00 +18°C° 0 mm 2 mps 728 mmHg 58%
    16:00 +18°C° 0 mm 2 mps 728 mmHg 59%
    17:00 +17°C° 0 mm 2 mps 727 mmHg 64%
    18:00 +15°C° 0 mm 1 mps 727 mmHg 68%
    19:00 +14°C° 0 mm 1 mps 727 mmHg 73%
    20:00 +13°C° 0 mm 1 mps 727 mmHg 75%
    21:00 +12°C° 0 mm 1 mps 727 mmHg 77%
    22:00 +11°C° 0 mm 1 mps 727 mmHg 79%
    23:00 +10°C° 0 mm 1 mps 727 mmHg 80%

    25 May, Saturday

    Time Temperature Precipitation Wind Pressure Humidity
    00:00 +10°C° 0 mm 1 mps 727 mmHg 81%
    01:00 +9°C° 0 mm 2 mps 727 mmHg 82%
    02:00 +8°C° 0 mm 2 mps 727 mmHg 84%
    03:00 +8°C° 0 mm 2 mps 727 mmHg 86%
    04:00 +8°C° 0 mm 2 mps 727 mmHg 88%
    05:00 +10°C° 0 mm 2 mps 727 mmHg 83%
    06:00 +12°C° 0 mm 3 mps 727 mmHg 78%
    07:00 +14°C° 0 mm 3 mps 727 mmHg 72%
    08:00 +15°C° 0.1 mm 4 mps 727 mmHg 70%
    09:00 +17°C° 0.1 mm 4 mps 727 mmHg 67%
    10:00 +17°C° 0.1 mm 5 mps 727 mmHg 64%
    11:00 +17°C° 0.6 mm 5 mps 727 mmHg 67%
    12:00 +17°C° 0.6 mm 5 mps 727 mmHg 70%
    13:00 +17°C° 0.6 mm 6 mps 727 mmHg 72%
    14:00 +17°C° 0.3 mm 5 mps 727 mmHg 70%
    15:00 +17°C° 0.3 mm 5 mps 727 mmHg 67%
    16:00 +18°C° 0.3 mm 4 mps 727 mmHg 64%
    17:00 +17°C° 0 mm 4 mps 727 mmHg 69%
    18:00 +14°C° 0 mm 3 mps 727 mmHg 74%
    19:00 +14°C° 0 mm 2 mps 727 mmHg 78%
    20:00 +13°C° 0 mm 2 mps 727 mmHg 79%
    21:00 +13°C° 0 mm 2 mps 727 mmHg 80%
    22:00 +12°C° 0 mm 2 mps 728 mmHg 81%
    23:00 +12°C° 0 mm 2 mps 727 mmHg 80%

    26 May, Sunday

    Time Temperature Precipitation Wind Pressure Humidity
    00:00 +11°C° 0 mm 3 mps 727 mmHg 80%
    01:00 +10°C° 0 mm 3 mps 727 mmHg 80%
    02:00 +10°C° 0 mm 3 mps 727 mmHg 81%
    03:00 +9°C° 0 mm 3 mps 727 mmHg 82%
    04:00 +8°C° 0 mm 3 mps 727 mmHg 82%
    05:00 +9°C° 0 mm 3 mps 727 mmHg 82%
    06:00 +10°C° 0 mm 4 mps 727 mmHg 81%
    07:00 +10°C° 0 mm 5 mps 727 mmHg 80%
    08:00 +12°C° 0.1 mm 5 mps 727 mmHg 76%
    09:00 +12°C° 0.1 mm 5 mps 727 mmHg 73%
    10:00 +13°C° 0.1 mm 6 mps 727 mmHg 69%
    11:00 +13°C° 0.1 mm 6 mps 727 mmHg 68%
    12:00 +14°C° 0.1 mm 6 mps 726 mmHg 67%
    13:00 +14°C° 0.1 mm 6 mps 726 mmHg 66%
    14:00 +14°C° 0.1 mm 6 mps 726 mmHg 67%
    15:00 +14°C° 0.1 mm 6 mps 726 mmHg 68%
    16:00 +14°C° 0.1 mm 6 mps 726 mmHg 68%
    17:00 +13°C° 0.1 mm 5 mps 726 mmHg 70%
    18:00 +12°C° 0.1 mm 4 mps 726 mmHg 72%
    19:00 +12°C° 0.1 mm 4 mps 726 mmHg 74%
    20:00 +11°C° 0 mm 3 mps 726 mmHg 75%
    21:00 +10°C° 0 mm 3 mps 726 mmHg 76%
    22:00 +10°C° 0 mm 2 mps 726 mmHg 77%
    23:00 +9°C° 0.3 mm 3 mps 726 mmHg 82%
    Show more